Flag for Czech Republic Weather past 2 weeks in Brno, Czech Republic

Now
69 °F

Overcast.


Feels Like: 69 °F
Forecast: 63 / 81 °F
Wind: 3 mph from East

Location: Brno / Turany

Current Time: Jul 28, 2014 at 9:41:30 AM

Latest Report: Jul 28, 2014 at 9:00 AM


Visibility: 8 mi

Pressure: 29.91 "Hg

Humidity: 80%

Dew point: 63 °F

Location of BrnoLocation

Historic Weather in Brno — Graph

°F

Brno temperature yesterday

Maximum temperature yesterday: 87 °F (at 2:00 PM)
Minimum temperature yesterday: 64 °F (at 6:00 AM)
Average temperature yesterday: 75 °F

Past Weeks' High & Low Weather Summary

 TemperatureHumidityPressure
High92 °F (Jul 20, 5:00 PM)92% (Jul 21, 6:00 PM)30.13 "Hg (Jul 21, 6:00 PM)
Low58 °F (Jul 26, 6:00 AM)23% (Jul 17, 4:00 PM)29.66 "Hg (Jul 21, 3:00 PM)
Average73 °F61%29.93 "Hg
* Reported Jul 13 8:00 AM — Jul 28 8:00 AM, Brno, Weather by CustomWeather, © 2014

Note: Actual official high and low records may vary slightly from our data, if they occured in-between our weather recording intervals... More about our weather records

Advertising

Brno weather history for previous 24 hours

 ConditionsComfort  
Time TempWeatherWind HumidityBarometerVisibility
8:00 AM
Jul 28
67 °FPartly sunny.1 mph84%29.91 "Hg6 mi
7:00 AM64 °FFog.2 mph90%29.92 "Hg3 mi
6:00 AM63 °FPartly sunny.2 mph91%29.91 "Hg7 mi
5:00 AM64 °FPassing clouds.1 mph91%29.90 "Hg6 mi
4:00 AM64 °FPassing clouds.2 mph90%29.91 "Hg19 mi
3:00 AM65 °FClear.3 mph87%29.91 "Hg19 mi
2:00 AM65 °FClear.3 mph88%29.92 "Hg19 mi
1:00 AM67 °FPassing clouds.3 mph85%29.93 "Hg19 mi
12:00 AM67 °FOvercast.3 mph80%29.93 "Hg19 mi
11:00 PM
Jul 27
69 °FPassing clouds.2 mph76%29.92 "Hg19 mi
10:00 PM69 °FLight rain. Overcast.6 mph77%29.93 "Hg19 mi
9:00 PM74 °FOvercast.2 mph66%29.90 "Hg16 mi
8:00 PM76 °FOvercast.5 mph63%29.90 "Hg19 mi
7:00 PM79 °FOvercast.8 mph51%29.89 "Hg19 mi
6:00 PM81 °FOvercast.2 mph48%29.87 "Hg19 mi
5:00 PM80 °FOvercast.3 mph50%29.86 "Hg16 mi
4:00 PM81 °FPartly sunny.9 mph52%29.86 "Hg16 mi
3:00 PM87 °FPartly sunny.6 mph39%29.85 "Hg16 mi
2:00 PM87 °FPartly sunny.5 mph35%29.86 "Hg19 mi
1:00 PM84 °FPartly sunny.3 mph41%29.88 "Hg19 mi
12:00 PM83 °FScattered clouds.3 mph46%29.89 "Hg19 mi
11:00 AM81 °FScattered clouds.3 mph49%29.90 "Hg19 mi
10:00 AM78 °FScattered clouds.2 mph53%29.92 "Hg19 mi
9:00 AM76 °FPassing clouds.6 mph56%29.92 "Hg19 mi
Weather by CustomWeather, © 2014

See weather overviewHow to use our weather pages